Flag for Canada Weather past 2 weeks in Rouyn-Noranda, Quebec, Canada

Now
54 °F

Scattered showers. Partly cloudy.


Feels Like: 52 °F
Forecast: 53 / 69 °F
Wind: 6 mph from West

Location: Rouyn Airport

Current Time: Aug 1, 2015 at 4:19:19 AM

Latest Report: Aug 1, 2015 at 4:00 AM


Visibility: 15 mi

Pressure: 29.69 "Hg

Humidity: 100%

Dew point: 54 °F

Location of Rouyn-NorandaLocation

Historic Weather in Rouyn-Noranda — Graph

°F

Rouyn-Noranda temperature yesterday

Maximum temperature yesterday: 73 °F (at 3:00 PM)
Minimum temperature yesterday: 55 °F (at 5:00 AM)
Average temperature yesterday: 62 °F

Past Weeks' High & Low Weather Summary

 TemperatureHumidityPressure
High90 °F (Jul 28, 2:00 PM)100% (Jul 17, 7:00 PM)30.01 "Hg (Jul 17, 7:00 PM)
Low48 °F (Jul 24, 6:00 AM)37% (Jul 24, 5:00 PM)29.42 "Hg (Jul 20, 5:00 PM)
Average66 °F78%29.77 "Hg
* Reported Jul 17 3:00 AM — Aug 1 3:00 AM, Rouyn-Noranda, Weather by CustomWeather, © 2015

Note: Actual official high and low records may vary slightly from our data, if they occured in-between our weather recording intervals... More about our weather records

Advertising

Rouyn-Noranda weather history for previous 24 hours

 ConditionsComfort  
Time TempWeatherWind HumidityBarometerVisibility
3:00 AM
Sat, Aug 1
52 °FPassing clouds.3 mph100%29.68 "Hg15 mi
2:00 AM55 °FPartly cloudy.3 mph94%29.67 "Hg15 mi
1:00 AM57 °FPassing clouds.3 mph94%29.68 "Hg15 mi
12:00 AM57 °FPassing clouds.5 mph94%29.68 "Hg15 mi
11:00 PM
Fri, Jul 31
55 °FPartly cloudy.7 mph100%29.67 "Hg15 mi
10:00 PM59 °FPartly cloudy.5 mph94%29.67 "Hg15 mi
9:00 PM61 °FPartly sunny.7 mph88%29.66 "Hg15 mi
8:00 PM63 °FPartly sunny.7 mph83%29.65 "Hg15 mi
7:00 PM64 °FBroken clouds.7 mph88%29.65 "Hg15 mi
6:00 PM63 °FScattered showers. Broken clouds.6 mph83%29.65 "Hg15 mi
5:00 PM61 °FSprinkles. Broken clouds.7 mph88%29.63 "Hg15 mi
4:56 PM61 °FSprinkles. Broken clouds.6 mph88%29.63 "Hg15 mi
4:00 PM63 °FThunderstorms. Mostly cloudy.6 mph88%29.65 "Hg12 mi
3:00 PM73 °FScattered showers. Partly sunny.12 mph50%29.61 "Hg15 mi
2:00 PM72 °FPartly sunny.9 mph61%29.64 "Hg15 mi
1:00 PM72 °FBroken clouds.12 mph61%29.66 "Hg15 mi
12:00 PM68 °FBroken clouds.7 mph73%29.68 "Hg15 mi
11:00 AM68 °FBroken clouds.10 mph69%29.69 "Hg15 mi
10:00 AM64 °FPartly sunny.9 mph78%29.70 "Hg15 mi
9:00 AM63 °FPartly sunny.10 mph83%29.71 "Hg15 mi
8:00 AM61 °FBroken clouds.10 mph83%29.71 "Hg15 mi
7:00 AM57 °FBroken clouds.8 mph94%29.70 "Hg15 mi
6:00 AM57 °FPassing clouds.6 mph94%29.70 "Hg15 mi
5:00 AM55 °FPartly cloudy.3 mph100%29.70 "Hg15 mi
4:00 AM59 °FPassing clouds.7 mph94%29.70 "Hg15 mi
Weather by CustomWeather, © 2015

See weather overviewHow to use our weather pages